#datetime,building,power
2024-01-11T00:00:00,pth,2.40
2024-01-11T00:02:00,pth,2.40
2024-01-11T00:03:00,pth,1.20
2024-01-11T00:05:00,pth,2.40
2024-01-11T00:07:00,pth,2.40
2024-01-11T00:08:00,pth,1.20
2024-01-11T00:10:00,pth,2.40
2024-01-11T00:11:00,pth,2.40
2024-01-11T00:13:00,pth,2.40
2024-01-11T00:14:00,pth,1.20
2024-01-11T00:16:00,pth,2.40
2024-01-11T00:18:00,pth,3.60
2024-01-11T00:19:00,pth,1.20
2024-01-11T00:21:00,pth,2.40
2024-01-11T00:23:00,pth,2.40
2024-01-11T00:25:00,pth,2.40
2024-01-11T00:27:00,pth,1.20
2024-01-11T00:28:00,pth,1.20
2024-01-11T00:30:00,pth,2.40
2024-01-11T00:32:00,pth,2.40
2024-01-11T00:34:00,pth,1.20
2024-01-11T00:36:00,pth,2.40
2024-01-11T00:37:00,pth,1.20
2024-01-11T00:38:00,pth,1.20
2024-01-11T00:40:00,pth,2.40
2024-01-11T00:41:00,pth,1.20
2024-01-11T00:43:00,pth,1.20
2024-01-11T00:44:00,pth,1.20
2024-01-11T00:46:00,pth,2.40
2024-01-11T00:48:00,pth,2.40
2024-01-11T00:49:00,pth,1.20
2024-01-11T00:51:00,pth,2.40
2024-01-11T00:52:00,pth,1.20
2024-01-11T00:54:00,pth,1.20
2024-01-11T00:55:00,pth,1.20
2024-01-11T00:57:00,pth,2.40
2024-01-11T00:58:00,pth,1.20
2024-01-11T01:00:00,pth,2.40
2024-01-11T01:01:00,pth,1.20
2024-01-11T01:03:00,pth,2.40
2024-01-11T01:05:00,pth,2.40
2024-01-11T01:06:00,pth,1.20
2024-01-11T01:08:00,pth,2.40
2024-01-11T01:10:00,pth,2.40
2024-01-11T01:11:00,pth,1.20
2024-01-11T01:12:00,pth,1.20
2024-01-11T01:14:00,pth,4.80
2024-01-11T01:15:00,pth,2.40
2024-01-11T01:17:00,pth,2.40
2024-01-11T01:19:00,pth,2.40
2024-01-11T01:20:00,pth,1.20
2024-01-11T01:22:00,pth,2.40
2024-01-11T01:23:00,pth,1.20
2024-01-11T01:24:00,pth,1.20
2024-01-11T01:25:00,pth,1.20
2024-01-11T01:27:00,pth,2.40
2024-01-11T01:28:00,pth,1.20
2024-01-11T01:29:00,pth,1.20
2024-01-11T01:30:00,pth,1.20
2024-01-11T01:32:00,pth,2.40
2024-01-11T01:34:00,pth,2.40
2024-01-11T01:36:00,pth,2.40
2024-01-11T01:38:00,pth,3.60
2024-01-11T01:40:00,pth,2.40
2024-01-11T01:42:00,pth,2.40
2024-01-11T01:43:00,pth,1.20
2024-01-11T01:45:00,pth,2.40
2024-01-11T01:48:00,pth,3.60
2024-01-11T01:50:00,pth,2.40
2024-01-11T01:51:00,pth,1.20
2024-01-11T01:53:00,pth,3.60
2024-01-11T01:55:00,pth,2.40
2024-01-11T01:56:00,pth,2.40
2024-01-11T01:57:00,pth,1.20
2024-01-11T01:59:00,pth,2.40
2024-01-11T02:01:00,pth,2.40
2024-01-11T02:02:00,pth,1.20
2024-01-11T02:03:00,pth,1.20
2024-01-11T02:05:00,pth,2.40
2024-01-11T02:06:00,pth,1.20
2024-01-11T02:07:00,pth,1.20
2024-01-11T02:08:00,pth,1.20
2024-01-11T02:10:00,pth,2.40
2024-01-11T02:12:00,pth,1.20
2024-01-11T02:13:00,pth,1.20
2024-01-11T02:15:00,pth,2.40
2024-01-11T02:16:00,pth,1.20
2024-01-11T02:18:00,pth,2.40
2024-01-11T02:19:00,pth,1.20
2024-01-11T02:21:00,pth,2.40
2024-01-11T02:23:00,pth,2.40
2024-01-11T02:25:00,pth,2.40
2024-01-11T02:27:00,pth,2.40
2024-01-11T02:28:00,pth,1.20
2024-01-11T02:30:00,pth,2.40
2024-01-11T02:31:00,pth,1.20
2024-01-11T02:33:00,pth,2.40
2024-01-11T02:34:00,pth,1.20
2024-01-11T02:35:00,pth,1.20
2024-01-11T02:37:00,pth,2.40
2024-01-11T02:38:00,pth,1.20
2024-01-11T02:40:00,pth,1.20
2024-01-11T02:42:00,pth,2.40
2024-01-11T02:44:00,pth,2.40
2024-01-11T02:46:00,pth,2.40
2024-01-11T02:49:00,pth,2.40
2024-01-11T02:50:00,pth,2.40
2024-01-11T02:51:00,pth,2.40
2024-01-11T02:52:00,pth,1.20
2024-01-11T02:54:00,pth,2.40
2024-01-11T02:56:00,pth,1.20
2024-01-11T02:58:00,pth,2.40
2024-01-11T02:59:00,pth,1.20
2024-01-11T03:01:00,pth,1.20
2024-01-11T03:03:00,pth,2.40
2024-01-11T03:04:00,pth,1.20
2024-01-11T03:06:00,pth,2.40
2024-01-11T03:08:00,pth,2.40
2024-01-11T03:09:00,pth,1.20
2024-01-11T03:11:00,pth,1.20
2024-01-11T03:12:00,pth,1.20
2024-01-11T03:14:00,pth,2.40
2024-01-11T03:16:00,pth,1.20
2024-01-11T03:17:00,pth,1.20
2024-01-11T03:19:00,pth,1.20
2024-01-11T03:21:00,pth,2.40
2024-01-11T03:22:00,pth,1.20
2024-01-11T03:24:00,pth,2.40
2024-01-11T03:25:00,pth,1.20
2024-01-11T03:27:00,pth,1.20
2024-01-11T03:29:00,pth,2.40
2024-01-11T03:30:00,pth,1.20
2024-01-11T03:32:00,pth,2.40
2024-01-11T03:34:00,pth,1.20
2024-01-11T03:35:00,pth,1.20
2024-01-11T03:36:00,pth,1.20
2024-01-11T03:38:00,pth,2.40
2024-01-11T03:40:00,pth,2.40
2024-01-11T03:42:00,pth,2.40
2024-01-11T03:45:00,pth,2.40
2024-01-11T03:46:00,pth,1.20
2024-01-11T03:47:00,pth,2.40
2024-01-11T03:49:00,pth,2.40
2024-01-11T03:51:00,pth,2.40
2024-01-11T03:54:00,pth,2.40
2024-01-11T03:56:00,pth,2.40
2024-01-11T03:58:00,pth,2.40
2024-01-11T04:00:00,pth,2.40
2024-01-11T04:01:00,pth,1.20
2024-01-11T04:03:00,pth,1.20
2024-01-11T04:05:00,pth,2.40
2024-01-11T04:06:00,pth,1.20
2024-01-11T04:07:00,pth,1.20
2024-01-11T04:09:00,pth,2.40
2024-01-11T04:10:00,pth,1.20
2024-01-11T04:12:00,pth,2.40
2024-01-11T04:13:00,pth,1.20
2024-01-11T04:14:00,pth,1.20
2024-01-11T04:16:00,pth,1.20
2024-01-11T04:18:00,pth,2.40
2024-01-11T04:19:00,pth,1.20
2024-01-11T04:21:00,pth,1.20
2024-01-11T04:22:00,pth,1.20
2024-01-11T04:24:00,pth,2.40
2024-01-11T04:25:00,pth,1.20
2024-01-11T04:27:00,pth,1.20
2024-01-11T04:28:00,pth,1.20
2024-01-11T04:30:00,pth,2.40
2024-01-11T04:32:00,pth,2.40
2024-01-11T04:33:00,pth,1.20
2024-01-11T04:35:00,pth,2.40
2024-01-11T04:36:00,pth,2.40
2024-01-11T04:37:00,pth,2.40
2024-01-11T04:39:00,pth,2.40
2024-01-11T04:40:00,pth,1.20
2024-01-11T04:42:00,pth,2.40
2024-01-11T04:43:00,pth,1.20
2024-01-11T04:44:00,pth,1.20
2024-01-11T04:45:00,pth,1.20
2024-01-11T04:47:00,pth,2.40
2024-01-11T04:49:00,pth,1.20
2024-01-11T04:51:00,pth,2.40
2024-01-11T04:53:00,pth,1.20
2024-01-11T04:55:00,pth,2.40
2024-01-11T04:57:00,pth,1.20
2024-01-11T04:58:00,pth,1.20
2024-01-11T04:59:00,pth,1.20
2024-01-11T05:01:00,pth,2.40
2024-01-11T05:02:00,pth,1.20
2024-01-11T05:04:00,pth,1.20
2024-01-11T05:05:00,pth,1.20
2024-01-11T05:06:00,pth,2.40
2024-01-11T05:07:00,pth,1.20
2024-01-11T05:09:00,pth,2.40
2024-01-11T05:11:00,pth,1.20
2024-01-11T05:12:00,pth,1.20
2024-01-11T05:14:00,pth,2.40
2024-01-11T05:15:00,pth,1.20
2024-01-11T05:17:00,pth,1.20
2024-01-11T05:19:00,pth,2.40
2024-01-11T05:20:00,pth,1.20
2024-01-11T05:22:00,pth,2.40
2024-01-11T05:23:00,pth,1.20
2024-01-11T05:25:00,pth,1.20
2024-01-11T05:26:00,pth,1.20
2024-01-11T05:28:00,pth,2.40
2024-01-11T05:30:00,pth,1.20
2024-01-11T05:32:00,pth,2.40
2024-01-11T05:33:00,pth,1.20
2024-01-11T05:36:00,pth,2.40
2024-01-11T05:38:00,pth,2.40
2024-01-11T05:40:00,pth,2.40
2024-01-11T05:42:00,pth,1.20
2024-01-11T05:44:00,pth,2.40
2024-01-11T05:45:00,pth,1.20
2024-01-11T05:47:00,pth,2.40
2024-01-11T05:48:00,pth,1.20
2024-01-11T05:50:00,pth,2.40
2024-01-11T05:52:00,pth,2.40
2024-01-11T05:54:00,pth,1.20
2024-01-11T05:56:00,pth,3.60
2024-01-11T05:58:00,pth,2.40
2024-01-11T05:59:00,pth,1.20
2024-01-11T06:01:00,pth,2.40
2024-01-11T06:03:00,pth,2.40
2024-01-11T06:05:00,pth,2.40
2024-01-11T06:07:00,pth,2.40
2024-01-11T06:08:00,pth,1.20
2024-01-11T06:11:00,pth,2.40
2024-01-11T06:12:00,pth,1.20
2024-01-11T06:14:00,pth,2.40
2024-01-11T06:16:00,pth,1.20
2024-01-11T06:18:00,pth,2.40
2024-01-11T06:20:00,pth,2.40
2024-01-11T06:21:00,pth,1.20
2024-01-11T06:23:00,pth,2.40
2024-01-11T06:25:00,pth,1.20
2024-01-11T06:26:00,pth,1.20
2024-01-11T06:28:00,pth,2.40
2024-01-11T06:29:00,pth,1.20
2024-01-11T06:31:00,pth,2.40
2024-01-11T06:33:00,pth,2.40
2024-01-11T06:35:00,pth,2.40
2024-01-11T06:36:00,pth,1.20
2024-01-11T06:38:00,pth,2.40
2024-01-11T06:40:00,pth,2.40
2024-01-11T06:42:00,pth,3.60
2024-01-11T06:45:00,pth,2.40
2024-01-11T06:47:00,pth,2.40
2024-01-11T06:48:00,pth,1.20
2024-01-11T06:50:00,pth,1.20
2024-01-11T06:52:00,pth,2.40
2024-01-11T06:53:00,pth,1.20
2024-01-11T06:55:00,pth,2.40
2024-01-11T06:56:00,pth,1.20
2024-01-11T06:57:00,pth,1.20
2024-01-11T06:59:00,pth,2.40
2024-01-11T07:01:00,pth,1.20
2024-01-11T07:02:00,pth,1.20
2024-01-11T07:04:00,pth,2.40
2024-01-11T07:05:00,pth,1.20
2024-01-11T07:06:00,pth,1.20
2024-01-11T07:08:00,pth,2.40
2024-01-11T07:10:00,pth,1.20
2024-01-11T07:11:00,pth,1.20
2024-01-11T07:12:00,pth,1.20
2024-01-11T07:14:00,pth,2.40
2024-01-11T07:16:00,pth,2.40
2024-01-11T07:18:00,pth,2.40
2024-01-11T07:20:00,pth,1.20
2024-01-11T07:21:00,pth,1.20
2024-01-11T07:23:00,pth,2.40
2024-01-11T07:25:00,pth,2.40
2024-01-11T07:27:00,pth,2.40
2024-01-11T07:29:00,pth,3.60
2024-01-11T07:31:00,pth,2.40
2024-01-11T07:33:00,pth,4.80
2024-01-11T07:35:00,pth,2.40
2024-01-11T07:37:00,pth,3.60
2024-01-11T07:39:00,pth,2.40
2024-01-11T07:41:00,pth,2.40
2024-01-11T07:43:00,pth,2.40
2024-01-11T07:45:00,pth,2.40
2024-01-11T07:46:00,pth,1.20
2024-01-11T07:48:00,pth,2.40
2024-01-11T07:50:00,pth,2.40
2024-01-11T07:51:00,pth,1.20
2024-01-11T07:53:00,pth,2.40
2024-01-11T07:55:00,pth,3.60
2024-01-11T07:57:00,pth,3.60
2024-01-11T07:58:00,pth,1.20
2024-01-11T08:00:00,pth,2.40
2024-01-11T08:01:00,pth,1.20
2024-01-11T08:03:00,pth,2.40
2024-01-11T08:05:00,pth,2.40
2024-01-11T08:07:00,pth,3.60
2024-01-11T08:08:00,pth,2.40
2024-01-11T08:09:00,pth,2.40
2024-01-11T08:11:00,pth,2.40
2024-01-11T08:13:00,pth,2.40
2024-01-11T08:15:00,pth,1.20
2024-01-11T08:17:00,pth,2.40
2024-01-11T08:19:00,pth,2.40
2024-01-11T08:21:00,pth,2.40
2024-01-11T08:22:00,pth,1.20
2024-01-11T08:24:00,pth,2.40
2024-01-11T08:26:00,pth,2.40
2024-01-11T08:27:00,pth,1.20
2024-01-11T08:30:00,pth,2.40
2024-01-11T08:32:00,pth,1.20
2024-01-11T08:34:00,pth,2.40
2024-01-11T08:36:00,pth,2.40
2024-01-11T08:38:00,pth,1.20
2024-01-11T08:39:00,pth,1.20
2024-01-11T08:41:00,pth,1.20
2024-01-11T08:42:00,pth,1.20
2024-01-11T08:44:00,pth,1.20
2024-01-11T08:46:00,pth,2.40
2024-01-11T08:48:00,pth,1.20
2024-01-11T08:49:00,pth,1.20
2024-01-11T08:51:00,pth,1.20
2024-01-11T08:53:00,pth,2.40
2024-01-11T08:55:00,pth,1.20
2024-01-11T08:56:00,pth,1.20
2024-01-11T08:58:00,pth,1.20
2024-01-11T08:59:00,pth,1.20
2024-01-11T09:01:00,pth,2.40
2024-01-11T09:04:00,pth,2.40
2024-01-11T09:06:00,pth,2.40
2024-01-11T09:07:00,pth,1.20
2024-01-11T09:10:00,pth,2.40
2024-01-11T09:11:00,pth,1.20
2024-01-11T09:12:00,pth,1.20
2024-01-11T09:14:00,pth,2.40
2024-01-11T09:16:00,pth,2.40
2024-01-11T09:17:00,pth,1.20
2024-01-11T09:19:00,pth,1.20
2024-01-11T09:20:00,pth,1.20
2024-01-11T09:21:00,pth,1.20
2024-01-11T09:23:00,pth,1.20
2024-01-11T09:25:00,pth,1.20
2024-01-11T09:28:00,pth,2.40
2024-01-11T09:31:00,pth,2.40
2024-01-11T09:33:00,pth,1.20
2024-01-11T09:34:00,pth,1.20
2024-01-11T09:36:00,pth,1.20
2024-01-11T09:38:00,pth,1.20
2024-01-11T09:39:00,pth,1.20
2024-01-11T09:41:00,pth,1.20
2024-01-11T09:43:00,pth,1.20
2024-01-11T09:46:00,pth,2.40
2024-01-11T09:48:00,pth,1.20
2024-01-11T09:50:00,pth,1.20
2024-01-11T09:52:00,pth,3.60
2024-01-11T09:53:00,pth,1.20
2024-01-11T09:55:00,pth,2.40
2024-01-11T09:57:00,pth,1.20
2024-01-11T09:59:00,pth,1.20
2024-01-11T10:00:00,pth,1.20
2024-01-11T10:02:00,pth,2.40
2024-01-11T10:04:00,pth,1.20
2024-01-11T10:06:00,pth,1.20
2024-01-11T10:07:00,pth,1.20
2024-01-11T10:09:00,pth,2.40
2024-01-11T10:12:00,pth,2.40
2024-01-11T10:14:00,pth,1.20
2024-01-11T10:15:00,pth,1.20
2024-01-11T10:17:00,pth,1.20
2024-01-11T10:19:00,pth,1.20
2024-01-11T10:20:00,pth,1.20
2024-01-11T10:23:00,pth,2.40
2024-01-11T10:24:00,pth,1.20
2024-01-11T10:26:00,pth,3.60
2024-01-11T10:27:00,pth,1.20
2024-01-11T10:29:00,pth,2.40
2024-01-11T10:30:00,pth,1.20
2024-01-11T10:32:00,pth,2.40
2024-01-11T10:34:00,pth,2.40
2024-01-11T10:35:00,pth,2.40
2024-01-11T10:36:00,pth,1.20
2024-01-11T10:37:00,pth,1.20
2024-01-11T10:40:00,pth,1.20
2024-01-11T10:42:00,pth,1.20
2024-01-11T10:44:00,pth,2.40
2024-01-11T10:46:00,pth,1.20
2024-01-11T10:47:00,pth,1.20
2024-01-11T10:49:00,pth,1.20
2024-01-11T10:50:00,pth,1.20
2024-01-11T10:52:00,pth,1.20
2024-01-11T10:54:00,pth,1.20
2024-01-11T10:56:00,pth,1.20
2024-01-11T10:59:00,pth,2.40
2024-01-11T11:01:00,pth,1.20
2024-01-11T11:03:00,pth,1.20
2024-01-11T11:04:00,pth,1.20
2024-01-11T11:05:00,pth,1.20
2024-01-11T11:07:00,pth,1.20
2024-01-11T11:09:00,pth,1.20
2024-01-11T11:11:00,pth,1.20
2024-01-11T11:12:00,pth,1.20
2024-01-11T11:14:00,pth,1.20
2024-01-11T11:15:00,pth,1.20
2024-01-11T11:18:00,pth,1.20
2024-01-11T11:20:00,pth,1.20
2024-01-11T11:21:00,pth,1.20
2024-01-11T11:24:00,pth,1.20
2024-01-11T11:25:00,pth,1.20
2024-01-11T11:27:00,pth,1.20
2024-01-11T11:29:00,pth,2.40
2024-01-11T11:31:00,pth,1.20
2024-01-11T11:32:00,pth,1.20
2024-01-11T11:35:00,pth,2.40
2024-01-11T11:37:00,pth,1.20
2024-01-11T11:39:00,pth,2.40
2024-01-11T11:41:00,pth,1.20
2024-01-11T11:43:00,pth,1.20
2024-01-11T11:45:00,pth,2.40
2024-01-11T11:46:00,pth,1.20
2024-01-11T11:48:00,pth,1.20
2024-01-11T11:50:00,pth,1.20
2024-01-11T11:53:00,pth,1.20
2024-01-11T11:55:00,pth,1.20
2024-01-11T11:56:00,pth,1.20
2024-01-11T11:58:00,pth,1.20
2024-01-11T12:00:00,pth,1.20
2024-01-11T12:01:00,pth,1.20
2024-01-11T12:04:00,pth,1.20
2024-01-11T12:06:00,pth,1.20
2024-01-11T12:08:00,pth,1.20
2024-01-11T12:10:00,pth,2.40
2024-01-11T12:12:00,pth,1.20
2024-01-11T12:14:00,pth,1.20
2024-01-11T12:16:00,pth,1.20
2024-01-11T12:17:00,pth,1.20
2024-01-11T12:18:00,pth,1.20
2024-01-11T12:21:00,pth,2.40
2024-01-11T12:23:00,pth,1.20
2024-01-11T12:26:00,pth,2.40
2024-01-11T12:29:00,pth,1.20
2024-01-11T12:30:00,pth,1.20
2024-01-11T12:32:00,pth,1.20
2024-01-11T12:34:00,pth,1.20
2024-01-11T12:36:00,pth,1.20
2024-01-11T12:38:00,pth,1.20
2024-01-11T12:40:00,pth,2.40
2024-01-11T12:42:00,pth,1.20
2024-01-11T12:44:00,pth,2.40
2024-01-11T12:46:00,pth,2.40
2024-01-11T12:49:00,pth,2.40
2024-01-11T12:51:00,pth,1.20
2024-01-11T12:53:00,pth,2.40
2024-01-11T12:54:00,pth,1.20
2024-01-11T12:56:00,pth,1.20
2024-01-11T12:58:00,pth,1.20
2024-01-11T12:59:00,pth,1.20
2024-01-11T13:01:00,pth,1.20
2024-01-11T13:02:00,pth,1.20
2024-01-11T13:04:00,pth,1.20
2024-01-11T13:06:00,pth,2.40
2024-01-11T13:08:00,pth,1.20
2024-01-11T13:10:00,pth,2.40
2024-01-11T13:13:00,pth,2.40
2024-01-11T13:16:00,pth,2.40
2024-01-11T13:18:00,pth,1.20
2024-01-11T13:19:00,pth,1.20
2024-01-11T13:22:00,pth,2.40
2024-01-11T13:24:00,pth,1.20
2024-01-11T13:25:00,pth,1.20
2024-01-11T13:26:00,pth,1.20
2024-01-11T13:28:00,pth,1.20
2024-01-11T13:29:00,pth,1.20
2024-01-11T13:32:00,pth,2.40
2024-01-11T13:34:00,pth,1.20
2024-01-11T13:36:00,pth,1.20
2024-01-11T13:38:00,pth,2.40
2024-01-11T13:40:00,pth,1.20
2024-01-11T13:43:00,pth,1.20
2024-01-11T13:45:00,pth,2.40
2024-01-11T13:48:00,pth,2.40
2024-01-11T13:50:00,pth,1.20
2024-01-11T13:53:00,pth,1.20
2024-01-11T13:54:00,pth,1.20
2024-01-11T13:57:00,pth,1.20
2024-01-11T13:59:00,pth,1.20
2024-01-11T14:01:00,pth,1.20
2024-01-11T14:03:00,pth,1.20
2024-01-11T14:04:00,pth,1.20
2024-01-11T14:05:00,pth,1.20
2024-01-11T14:06:00,pth,1.20
2024-01-11T14:08:00,pth,1.20
2024-01-11T14:09:00,pth,1.20
2024-01-11T14:11:00,pth,1.20
2024-01-11T14:12:00,pth,1.20
2024-01-11T14:14:00,pth,1.20
2024-01-11T14:16:00,pth,1.20
2024-01-11T14:18:00,pth,2.40
2024-01-11T14:20:00,pth,1.20
2024-01-11T14:23:00,pth,2.40
2024-01-11T14:25:00,pth,1.20
2024-01-11T14:27:00,pth,1.20
2024-01-11T14:29:00,pth,1.20
2024-01-11T14:31:00,pth,1.20
2024-01-11T14:33:00,pth,1.20
2024-01-11T14:35:00,pth,1.20
2024-01-11T14:37:00,pth,1.20
2024-01-11T14:39:00,pth,1.20
2024-01-11T14:41:00,pth,2.40
2024-01-11T14:43:00,pth,1.20
2024-01-11T14:45:00,pth,1.20
2024-01-11T14:46:00,pth,1.20
2024-01-11T14:48:00,pth,1.20
2024-01-11T14:50:00,pth,2.40
2024-01-11T14:51:00,pth,1.20
2024-01-11T14:53:00,pth,1.20
2024-01-11T14:55:00,pth,2.40
2024-01-11T14:56:00,pth,1.20
2024-01-11T14:58:00,pth,1.20
2024-01-11T15:00:00,pth,1.20
2024-01-11T15:02:00,pth,2.40
2024-01-11T15:04:00,pth,1.20
2024-01-11T15:06:00,pth,1.20
2024-01-11T15:08:00,pth,1.20
2024-01-11T15:10:00,pth,1.20
2024-01-11T15:11:00,pth,1.20
2024-01-11T15:13:00,pth,2.40
2024-01-11T15:16:00,pth,2.40
2024-01-11T15:18:00,pth,1.20
2024-01-11T15:19:00,pth,1.20
2024-01-11T15:22:00,pth,2.40
2024-01-11T15:23:00,pth,1.20
2024-01-11T15:25:00,pth,1.20
2024-01-11T15:26:00,pth,1.20
2024-01-11T15:28:00,pth,1.20
2024-01-11T15:31:00,pth,1.20
2024-01-11T15:33:00,pth,1.20
2024-01-11T15:34:00,pth,1.20
2024-01-11T15:36:00,pth,1.20
2024-01-11T15:38:00,pth,1.20
2024-01-11T15:39:00,pth,1.20
2024-01-11T15:42:00,pth,1.20
2024-01-11T15:43:00,pth,1.20
2024-01-11T15:45:00,pth,1.20
2024-01-11T15:47:00,pth,1.20
2024-01-11T15:49:00,pth,1.20
2024-01-11T15:51:00,pth,2.40
2024-01-11T15:53:00,pth,1.20
2024-01-11T15:54:00,pth,1.20
2024-01-11T15:57:00,pth,2.40
2024-01-11T16:00:00,pth,2.40
2024-01-11T16:02:00,pth,1.20
2024-01-11T16:04:00,pth,1.20
2024-01-11T16:06:00,pth,2.40
2024-01-11T16:08:00,pth,1.20
2024-01-11T16:09:00,pth,1.20
2024-01-11T16:11:00,pth,2.40
2024-01-11T16:14:00,pth,2.40
2024-01-11T16:16:00,pth,2.40
2024-01-11T16:19:00,pth,3.60
2024-01-11T16:21:00,pth,3.60
2024-01-11T16:23:00,pth,2.40
2024-01-11T16:24:00,pth,1.20
2024-01-11T16:25:00,pth,1.20
2024-01-11T16:27:00,pth,3.60
2024-01-11T16:28:00,pth,1.20
2024-01-11T16:30:00,pth,2.40
2024-01-11T16:31:00,pth,2.40
2024-01-11T16:33:00,pth,3.60
2024-01-11T16:35:00,pth,2.40
2024-01-11T16:36:00,pth,2.40
2024-01-11T16:38:00,pth,2.40
2024-01-11T16:40:00,pth,2.40
2024-01-11T16:42:00,pth,3.60
2024-01-11T16:44:00,pth,3.60
2024-01-11T16:46:00,pth,2.40
2024-01-11T16:48:00,pth,1.20
2024-01-11T16:49:00,pth,2.40
2024-01-11T16:51:00,pth,2.40
2024-01-11T16:52:00,pth,1.20
2024-01-11T16:53:00,pth,1.20
2024-01-11T16:55:00,pth,3.60
2024-01-11T16:57:00,pth,1.20
2024-01-11T16:58:00,pth,1.20
2024-01-11T17:00:00,pth,7.20
2024-01-11T17:02:00,pth,13.20
2024-01-11T17:03:00,pth,7.20
2024-01-11T17:05:00,pth,13.20
2024-01-11T17:07:00,pth,13.20
2024-01-11T17:09:00,pth,14.40
2024-01-11T17:11:00,pth,13.20
2024-01-11T17:13:00,pth,13.20
2024-01-11T17:14:00,pth,7.20
2024-01-11T17:16:00,pth,12.00
2024-01-11T17:18:00,pth,13.20
2024-01-11T17:19:00,pth,7.20
2024-01-11T17:20:00,pth,6.00
2024-01-11T17:22:00,pth,14.40
2024-01-11T17:23:00,pth,6.00
2024-01-11T17:25:00,pth,13.20
2024-01-11T17:26:00,pth,7.20
2024-01-11T17:28:00,pth,13.20
2024-01-11T17:29:00,pth,7.20
2024-01-11T17:31:00,pth,14.40
2024-01-11T17:33:00,pth,13.20
2024-01-11T17:34:00,pth,7.20
2024-01-11T17:36:00,pth,14.40
2024-01-11T17:37:00,pth,6.00
2024-01-11T17:38:00,pth,7.20
2024-01-11T17:39:00,pth,6.00
2024-01-11T17:41:00,pth,14.40
2024-01-11T17:42:00,pth,7.20
2024-01-11T17:44:00,pth,13.20
2024-01-11T17:45:00,pth,7.20
2024-01-11T17:46:00,pth,7.20
2024-01-11T17:48:00,pth,13.20
2024-01-11T17:49:00,pth,7.20
2024-01-11T17:51:00,pth,13.20
2024-01-11T17:53:00,pth,13.20
2024-01-11T17:54:00,pth,7.20
2024-01-11T17:55:00,pth,7.20
2024-01-11T17:57:00,pth,13.20
2024-01-11T17:58:00,pth,7.20
2024-01-11T17:59:00,pth,1.20
2024-01-11T18:01:00,pth,3.60
2024-01-11T18:03:00,pth,2.40
2024-01-11T18:04:00,pth,1.20
2024-01-11T18:06:00,pth,2.40
2024-01-11T18:08:00,pth,3.60
2024-01-11T18:09:00,pth,1.20
2024-01-11T18:11:00,pth,2.40
2024-01-11T18:13:00,pth,2.40
2024-01-11T18:15:00,pth,2.40
2024-01-11T18:17:00,pth,2.40
2024-01-11T18:19:00,pth,2.40
2024-01-11T18:21:00,pth,2.40
2024-01-11T18:23:00,pth,1.20
2024-01-11T18:25:00,pth,3.60
2024-01-11T18:27:00,pth,2.40
2024-01-11T18:29:00,pth,2.40
2024-01-11T18:30:00,pth,1.20
2024-01-11T18:31:00,pth,1.20
2024-01-11T18:33:00,pth,1.20
2024-01-11T18:35:00,pth,2.40
2024-01-11T18:37:00,pth,2.40
2024-01-11T18:39:00,pth,3.60
2024-01-11T18:40:00,pth,1.20
2024-01-11T18:41:00,pth,1.20
2024-01-11T18:43:00,pth,2.40
2024-01-11T18:44:00,pth,1.20
2024-01-11T18:46:00,pth,2.40
2024-01-11T18:48:00,pth,3.60
2024-01-11T18:49:00,pth,1.20
2024-01-11T18:51:00,pth,2.40
2024-01-11T18:53:00,pth,3.60
2024-01-11T18:55:00,pth,2.40
2024-01-11T18:56:00,pth,1.20
2024-01-11T18:57:00,pth,1.20
2024-01-11T18:59:00,pth,2.40
2024-01-11T19:01:00,pth,2.40
2024-01-11T19:03:00,pth,2.40
2024-01-11T19:04:00,pth,1.20
2024-01-11T19:05:00,pth,1.20
2024-01-11T19:06:00,pth,1.20
2024-01-11T19:08:00,pth,2.40
2024-01-11T19:09:00,pth,2.40
2024-01-11T19:10:00,pth,1.20
2024-01-11T19:11:00,pth,1.20
2024-01-11T19:13:00,pth,2.40
2024-01-11T19:15:00,pth,3.60
2024-01-11T19:16:00,pth,1.20
2024-01-11T19:17:00,pth,1.20
2024-01-11T19:19:00,pth,2.40
2024-01-11T19:20:00,pth,1.20
2024-01-11T19:22:00,pth,2.40
2024-01-11T19:24:00,pth,2.40
2024-01-11T19:26:00,pth,2.40
2024-01-11T19:27:00,pth,1.20
2024-01-11T19:28:00,pth,1.20
2024-01-11T19:30:00,pth,3.60
2024-01-11T19:31:00,pth,1.20
2024-01-11T19:32:00,pth,1.20
2024-01-11T19:34:00,pth,2.40
2024-01-11T19:36:00,pth,2.40
2024-01-11T19:38:00,pth,2.40
2024-01-11T19:40:00,pth,1.20
2024-01-11T19:42:00,pth,2.40
2024-01-11T19:44:00,pth,2.40
2024-01-11T19:45:00,pth,2.40
2024-01-11T19:46:00,pth,1.20
2024-01-11T19:48:00,pth,2.40
2024-01-11T19:50:00,pth,2.40
2024-01-11T19:51:00,pth,1.20
2024-01-11T19:53:00,pth,4.80
2024-01-11T19:55:00,pth,2.40
2024-01-11T19:56:00,pth,1.20
2024-01-11T19:58:00,pth,6.00
2024-01-11T20:00:00,pth,4.80
2024-01-11T20:02:00,pth,4.80
2024-01-11T20:03:00,pth,3.60
2024-01-11T20:04:00,pth,2.40
2024-01-11T20:06:00,pth,4.80
2024-01-11T20:07:00,pth,1.20
2024-01-11T20:09:00,pth,2.40
2024-01-11T20:11:00,pth,3.60
2024-01-11T20:12:00,pth,1.20
2024-01-11T20:13:00,pth,1.20
2024-01-11T20:15:00,pth,2.40
2024-01-11T20:16:00,pth,2.40
2024-01-11T20:18:00,pth,2.40
2024-01-11T20:20:00,pth,2.40
2024-01-11T20:22:00,pth,2.40
2024-01-11T20:23:00,pth,1.20
2024-01-11T20:25:00,pth,2.40
2024-01-11T20:26:00,pth,1.20
2024-01-11T20:28:00,pth,2.40
2024-01-11T20:29:00,pth,1.20
2024-01-11T20:31:00,pth,2.40
2024-01-11T20:33:00,pth,2.40
2024-01-11T20:34:00,pth,1.20
2024-01-11T20:37:00,pth,2.40
2024-01-11T20:38:00,pth,1.20
2024-01-11T20:40:00,pth,2.40
2024-01-11T20:41:00,pth,1.20
2024-01-11T20:43:00,pth,3.60
2024-01-11T20:44:00,pth,1.20
2024-01-11T20:46:00,pth,2.40
2024-01-11T20:47:00,pth,1.20
2024-01-11T20:49:00,pth,2.40
2024-01-11T20:51:00,pth,2.40
2024-01-11T20:52:00,pth,2.40
2024-01-11T20:53:00,pth,1.20
2024-01-11T20:55:00,pth,2.40
2024-01-11T20:57:00,pth,1.20
2024-01-11T20:59:00,pth,2.40
2024-01-11T21:01:00,pth,2.40
2024-01-11T21:02:00,pth,1.20
2024-01-11T21:05:00,pth,2.40
2024-01-11T21:06:00,pth,1.20
2024-01-11T21:08:00,pth,2.40
2024-01-11T21:10:00,pth,2.40
2024-01-11T21:11:00,pth,1.20
2024-01-11T21:13:00,pth,1.20
2024-01-11T21:14:00,pth,1.20
2024-01-11T21:16:00,pth,2.40
2024-01-11T21:17:00,pth,1.20
2024-01-11T21:18:00,pth,1.20
2024-01-11T21:20:00,pth,2.40
2024-01-11T21:21:00,pth,1.20
2024-01-11T21:23:00,pth,2.40
2024-01-11T21:25:00,pth,2.40
2024-01-11T21:27:00,pth,1.20
2024-01-11T21:29:00,pth,2.40
2024-01-11T21:30:00,pth,1.20
2024-01-11T21:32:00,pth,2.40
2024-01-11T21:34:00,pth,2.40
2024-01-11T21:36:00,pth,2.40
2024-01-11T21:37:00,pth,1.20
2024-01-11T21:39:00,pth,2.40
2024-01-11T21:40:00,pth,1.20
2024-01-11T21:42:00,pth,3.60
2024-01-11T21:43:00,pth,1.20
2024-01-11T21:45:00,pth,2.40
2024-01-11T21:46:00,pth,1.20
2024-01-11T21:47:00,pth,1.20
2024-01-11T21:49:00,pth,2.40
2024-01-11T21:50:00,pth,1.20
2024-01-11T21:52:00,pth,2.40
2024-01-11T21:53:00,pth,1.20
2024-01-11T21:55:00,pth,3.60
2024-01-11T21:56:00,pth,1.20
2024-01-11T21:58:00,pth,2.40
2024-01-11T21:59:00,pth,1.20
2024-01-11T22:01:00,pth,2.40
2024-01-11T22:03:00,pth,3.60
2024-01-11T22:05:00,pth,3.60
2024-01-11T22:07:00,pth,4.80
2024-01-11T22:08:00,pth,1.20
2024-01-11T22:09:00,pth,2.40
2024-01-11T22:11:00,pth,2.40
2024-01-11T22:13:00,pth,3.60
2024-01-11T22:14:00,pth,2.40
2024-01-11T22:16:00,pth,2.40
2024-01-11T22:18:00,pth,3.60
2024-01-11T22:20:00,pth,2.40
2024-01-11T22:21:00,pth,1.20
2024-01-11T22:23:00,pth,3.60
2024-01-11T22:25:00,pth,3.60
2024-01-11T22:26:00,pth,2.40
2024-01-11T22:27:00,pth,1.20
2024-01-11T22:29:00,pth,3.60
2024-01-11T22:31:00,pth,3.60
2024-01-11T22:33:00,pth,3.60
2024-01-11T22:34:00,pth,1.20
2024-01-11T22:36:00,pth,2.40
2024-01-11T22:38:00,pth,2.40
2024-01-11T22:40:00,pth,3.60
2024-01-11T22:42:00,pth,2.40
2024-01-11T22:44:00,pth,3.60
2024-01-11T22:46:00,pth,10.80
2024-01-11T22:48:00,pth,13.20
2024-01-11T22:50:00,pth,13.20
2024-01-11T22:52:00,pth,14.40
2024-01-11T22:53:00,pth,6.00
2024-01-11T22:55:00,pth,14.40
2024-01-11T22:57:00,pth,14.40
2024-01-11T22:59:00,pth,13.20
2024-01-11T23:01:00,pth,13.20
2024-01-11T23:02:00,pth,7.20
2024-01-11T23:04:00,pth,13.20
